This is the latest recevied weather packets stored in our database for station/object DPX206-15. If no packets are shown the sender has not sent any weather packets the latest 10 day(s).
| Time | Temp. | Humidity | Pressure | Rain* | Wind** | Luminosity | Snow |
|---|---|---|---|---|---|---|---|
| 1777551355 | 16.11° C | 35% | 1032.1 hPa | 0 mm | - | 716 W/m² | - |
| 1777549104 | 16.11° C | 35% | 1032.3 hPa | 0 mm | - | 768 W/m² | - |
| 1777546853 | 16.11° C | 34% | 1032.6 hPa | 0 mm | - | 764 W/m² | - |
| 1777545352 | 16.11° C | 31% | 1032.9 hPa | 0 mm | - | 793 W/m² | - |
| 1777544602 | 16.11° C | 33% | 1033.1 hPa | 0 mm | - | 804 W/m² | - |
| 1777543852 | 16.11° C | 33% | 1033 hPa | 0 mm | - | 793 W/m² | - |
| 1777542351 | 16.11° C | 34% | 1033.2 hPa | 0 mm | - | 759 W/m² | - |
| 1777540850 | 15.56° C | 33% | 1033.5 hPa | 0 mm | - | 697 W/m² | - |
| 1777540100 | 15.56° C | 33% | 1033 hPa | 0 mm | - | 688 W/m² | - |
| 1777539350 | 15° C | 33% | 1033 hPa | 0 mm | - | 644 W/m² | - |
| 1777537849 | 15° C | 35% | 1033.5 hPa | 0 mm | - | 481 W/m² | - |
| 1777537099 | 14.44° C | 38% | 1033.3 hPa | 0 mm | - | 525 W/m² | - |
| 1777536349 | 13.89° C | 43% | 1033.4 hPa | 0 mm | - | 489 W/m² | - |
| 1777534849 | 12.22° C | 44% | 1033.4 hPa | 0 mm | - | 390 W/m² | - |
| 1777534098 | 12.22° C | 43% | 1033.2 hPa | 0 mm | - | 358 W/m² | - |
| 1777533347 | 11.67° C | 44% | 1033.5 hPa | 0 mm | - | 322 W/m² | - |
| 1777532597 | 11.67° C | 44% | 1033.3 hPa | 0 mm | - | 282 W/m² | - |
| 1777531096 | 10.56° C | 49% | 1033.5 hPa | 0 mm | - | 242 W/m² | - |
| 1777530345 | 10° C | 52% | 1033.6 hPa | 0 mm | - | 193 W/m² | - |
| 1777529595 | 9.44° C | 56% | 1033.4 hPa | 0 mm | - | 191 W/m² | - |
| 1777528844 | 8.33° C | 58% | 1033.6 hPa | 0 mm | - | 164 W/m² | - |
| 1777528094 | 7.78° C | 59% | 1033.2 hPa | 0 mm | - | 129 W/m² | - |
| 1777527344 | 6.67° C | 61% | 1033.3 hPa | 0 mm | - | 89 W/m² | - |
| 1777526593 | 6.11° C | 63% | 1033 hPa | 0 mm | - | 79 W/m² | - |
| 1777525843 | 5° C | 65% | 1033.3 hPa | 0 mm | - | 56 W/m² | - |
* Rain latest hour (hover to see other rain measurements)
** Current wind speed in m/s (hover to see current wind gust speed)